Flag for Germany Weather past 2 weeks in Westerstede, Lower Saxony, Germany

Now
59 °F

Broken clouds.


Feels Like: 58 °F
Forecast: 44 / 59 °F
Wind: 8 mph from Southwest

Location: Wittmundhaven

Current Time: May 27, 2015 at 6:39:19 PM

Latest Report: May 27, 2015 at 5:20 PM


Visibility: N/A

Pressure: 30.12 "Hg

Humidity: 51%

Dew point: 41 °F

Location of WesterstedeLocation

Historic Weather in Westerstede — Graph

°F

Westerstede temperature yesterday

Maximum temperature yesterday: 54 °F (at 1:20 PM)
Minimum temperature yesterday: 46 °F (at 2:20 AM)
Average temperature yesterday: 50 °F

Past Weeks' High & Low Weather Summary

 TemperatureHumidityPressure
High66 °F (May 22, 3:20 PM)94% (May 16, 2:20 PM)30.30 "Hg (May 16, 2:20 PM)
Low37 °F (May 15, 3:20 AM)41% (May 17, 2:20 PM)29.53 "Hg (May 18, 9:20 PM)
Average51 °F74%30.03 "Hg
* Reported May 12 5:20 PM — May 27 5:20 PM, Westerstede, Weather by CustomWeather, © 2015

Note: Actual official high and low records may vary slightly from our data, if they occured in-between our weather recording intervals... More about our weather records

Advertising

Westerstede weather history for previous 24 hours

 ConditionsComfort  
Time TempWeatherWind HumidityBarometerVisibility
5:20 PM
Wed, May 27
59 °FBroken clouds.8 mph51%30.12 "HgN/A
4:20 PM59 °FPartly sunny.9 mph55%30.12 "HgN/A
3:20 PM59 °FBroken clouds.9 mph55%30.15 "HgN/A
2:20 PM59 °FBroken clouds.6 mph51%30.15 "HgN/A
1:20 PM57 °FBroken clouds.7 mph55%30.18 "HgN/A
12:20 PM57 °FBroken clouds.9 mph51%30.18 "HgN/A
11:20 AM55 °FBroken clouds.9 mph55%30.21 "HgN/A
10:20 AM55 °FPartly sunny.10 mph55%30.21 "HgN/A
9:20 AM54 °FScattered clouds.10 mph63%30.21 "HgN/A
8:20 AM54 °FScattered clouds.13 mph67%30.18 "HgN/A
7:20 AM50 °FPassing clouds.9 mph76%30.18 "HgN/A
6:20 AM48 °FPassing clouds.7 mph82%30.18 "HgN/A
5:20 AM46 °FPassing clouds.7 mph87%30.18 "HgN/A
4:20 AM48 °FPassing clouds.7 mph87%30.18 "HgN/A
3:20 AM50 °FPartly cloudy.8 mph82%30.18 "HgN/A
2:20 AM50 °FPartly cloudy.9 mph82%30.18 "HgN/A
1:20 AM50 °FPartly cloudy.9 mph82%30.18 "HgN/A
12:20 AM50 °FPassing clouds.7 mph76%30.18 "HgN/A
11:20 PM
Tue, May 26
50 °FPassing clouds.7 mph76%30.18 "HgN/A
10:20 PM50 °FPartly sunny.8 mph71%30.18 "HgN/A
9:20 PM50 °FPartly sunny.8 mph76%30.18 "HgN/A
8:20 PM50 °FBroken clouds.12 mph71%30.15 "HgN/A
7:20 PM52 °FBroken clouds.15 mph72%30.15 "HgN/A
6:20 PM52 °FBroken clouds.14 mph67%30.15 "HgN/A
Weather by CustomWeather, © 2015

See weather overviewHow to use our weather pages